"TOA5","AWS1","CR1000","7964","CR1000.Std.14","CPU:AWS1_114.CR1","64363","TBL110"
"TIMESTAMP","RECORD","Wind_spd_WVc(1)","Wind_spd_WVc(2)","Air_Temp_Avg","Humidity_Avg","SW_upper_Wm2_Avg","Rain_Tot","Press_Avg","Issui_Tot","Depth_cm","SR50A_Raw","Quality","Ground_Temp_Avg(1)","Ground_Temp_Avg(2)","SW_lower_Wm2_Avg","Albedo_Avg","SWC_per(1)","SWC_per(2)","Period(1)","Period(2)"
"TS","RN","","","","","","","","","","","","","","","","","","",""
"","","WVc","WVc","Avg","Avg","Avg","Tot","Avg","Tot","Smp","Smp","Smp","Avg","Avg","Avg","Avg","Smp","Smp","Smp","Smp"
"2017-05-25 00:00:00",289501,0.09,85,10.83,100,0,0.5,861.882,0,-4.179,3.16,194,13.82,13,0.4547449,0,46.4,54.29,32.39,34.34
"2017-05-25 00:10:00",289502,0.337,39.33,10.72,100,0,0,861.8461,0,-4.461,3.163,190,13.79,12.97,0.8033827,0,46.35,54.29,32.38,34.34
"2017-05-25 00:20:00",289503,0.449,359.9,10.83,100,0,0.5,861.8461,0,-5.223,3.17,174,13.76,12.98,0.7579082,0,46.4,54.29,32.39,34.34
"2017-05-25 00:30:00",289504,0.147,67.76,10.84,100,0,0.5,861.7598,0,-4.966,3.167,195,13.77,12.97,0.6859069,0,46.4,54.29,32.39,34.34
"2017-05-25 00:40:00",289505,0.317,65.31,10.75,100,0,0,861.5491,0,-5.378,3.172,190,13.71,12.97,0.735171,0,46.4,54.29,32.39,34.34
"2017-05-25 00:50:00",289506,0.532,34.6,10.81,100,0,0.5,861.4523,0,-4.457,3.162,179,13.66,12.97,0.7806454,0,46.4,54.29,32.39,34.34
"2017-05-25 01:00:00",289507,0.315,44.33,10.86,100,0,0,861.3596,0,-5.044,3.168,190,13.67,12.97,0.693486,0,46.4,54.29,32.39,34.34
"2017-05-25 01:10:00",289508,0.214,37.88,10.88,100,0,0,861.3407,0,-5.069,3.168,190,13.67,12.97,0.5419043,0,46.45,54.29,32.4,34.34
"2017-05-25 01:20:00",289509,0.041,58.6,10.86,100,0,0,861.2733,0,-5.044,3.168,187,13.64,12.97,0.5191671,0,46.45,54.24,32.4,34.33
"2017-05-25 01:30:00",289510,0,0,10.81,100,0,0.5,861.0879,0,-4.844,3.167,190,13.58,12.97,0.4547449,0,46.51,54.29,32.42,34.34
"2017-05-25 01:40:00",289511,0,0,10.83,100,0,0,861.0879,0,-4.767,3.166,182,13.58,12.98,0.4547449,0,46.56,54.29,32.43,34.34
"2017-05-25 01:50:00",289512,0,0,10.79,100,0,0,860.8857,0,-4.665,3.165,195,13.59,12.99,0.4547449,0,46.51,54.29,32.42,34.34
"2017-05-25 02:00:00",289513,0,0,10.81,100,0,0,860.7656,0,-5.019,3.168,187,13.59,13.01,0.4547449,0,46.56,54.29,32.43,34.34
"2017-05-25 02:10:00",289514,0,0,10.78,100,0,0,860.6329,0,-5.019,3.168,186,13.49,13.03,0.4547449,0,46.56,54.24,32.43,34.33
"2017-05-25 02:20:00",289515,0,0,10.86,100,0,0,860.5823,0,-4.918,3.167,196,13.5,13,0.4547449,0,46.56,54.24,32.43,34.33
"2017-05-25 02:30:00",289516,0,0,10.88,100,0,0.5,860.5319,0,-4.559,3.163,189,13.5,12.96,0.4547449,0,46.61,54.29,32.44,34.34
"2017-05-25 02:40:00",289517,0,0,10.89,100,0,0,860.3718,0,-4.84,3.166,178,13.5,12.93,0.4547449,0,46.66,54.24,32.46,34.33
"2017-05-25 02:50:00",289518,0,0,10.87,100,0,0,860.3297,0,-4.33,3.161,193,13.52,12.89,0.4547449,0,46.72,54.29,32.47,34.34
"2017-05-25 03:00:00",289519,0,0,10.87,100,0,0.5,860.277,0,-4.917,3.167,173,13.46,12.89,0.4547449,0,46.72,54.29,32.47,34.34
"2017-05-25 03:10:00",289520,0,0,10.88,100,0,0,860.3107,0,-4.841,3.166,182,13.45,12.89,0.4547449,0,46.72,54.29,32.47,34.34
"2017-05-25 03:20:00",289521,0,0,10.91,100,0,0.5,860.2875,0,-4.176,3.159,186,13.44,12.89,0.4888508,0,46.77,54.29,32.48,34.34
"2017-05-25 03:30:00",289522,0,0,11.03,100,0,1,860.3297,0,-4.584,3.163,188,13.41,12.89,0.5002194,0,46.77,54.29,32.48,34.34
"2017-05-25 03:40:00",289523,0,0,10.93,100,0,1,860.3297,0,-5.248,3.17,193,13.43,12.89,0.4547449,0,46.82,54.24,32.5,34.33
"2017-05-25 03:50:00",289524,0,0,10.88,100,0,1,860.3297,0,-4.355,3.161,188,13.4,12.89,0.4509554,0,47.3,54.24,32.62,34.33
"2017-05-25 04:00:00",289525,0.306,66.66,10.82,100,0,0.5,860.3297,0,-5.174,3.17,182,13.33,12.89,0.4547449,0,47.73,54.29,32.73,34.34
"2017-05-25 04:10:00",289526,1.015,48.26,10.69,100,0,1,860.3297,0,-4.664,3.165,192,13.32,12.93,0.4585344,0,48,54.29,32.8,34.34
"2017-05-25 04:20:00",289527,0.914,33.75,10.77,100,0,0.5,860.296,0,-4.612,3.164,195,13.32,12.94,0.6631697,0,48.21,54.24,32.85,34.33
"2017-05-25 04:30:00",289528,0.8,24.65,10.85,100,0,0,860.1232,0,-4.865,3.166,186,13.35,12.91,0.6139057,0,48.43,54.29,32.9,34.34
"2017-05-25 04:40:00",289529,0.739,27.45,10.89,100,0.1493508,0.5,860.0284,0,-4.865,3.166,181,13.27,12.85,0.6063265,0.53,48.7,54.29,32.97,34.34
"2017-05-25 04:50:00",289530,0.431,21.71,10.9,100,0.471634,0.5,860.0348,0,-4.89,3.166,195,13.23,12.81,0.9057003,1.92,49.03,54.29,33.05,34.34
"2017-05-25 05:00:00",289531,0.034,5.352,11.01,100,0.7310327,0,860.2728,0,-5.4,3.171,197,13.24,12.8,0.553273,0.908,49.19,54.35,33.09,34.36
"2017-05-25 05:10:00",289532,0.075,336.4,10.89,100,1.874745,1.5,860.3149,0,-4.51,3.163,181,13.25,12.8,0.4547449,0.282,49.46,54.35,33.16,34.36
"2017-05-25 05:20:00",289533,0.133,20.91,10.87,100,2.468218,0.5,860.3254,0,-4.099,3.158,198,13.17,12.8,0.7541187,0.307,49.84,54.35,33.26,34.36
"2017-05-25 05:30:00",289534,0.049,61.69,11.05,100,3.002737,0.5,860.3297,0,-4.633,3.163,180,13.15,12.8,0.9322271,0.317,50.39,54.35,33.39,34.36
"2017-05-25 05:40:00",289535,0.649,57.9,11,100,4.429429,1.5,860.3297,0,-5.938,3.177,181,13.15,12.8,0.9322271,0.214,50.99,54.41,33.54,34.37
"2017-05-25 05:50:00",289536,0.405,88.1,10.92,100,6.524271,1,860.3297,0,-5.371,3.17,201,13.16,12.8,1.246759,0.206,51.38,54.46,33.64,34.38
"2017-05-25 06:00:00",289537,0.667,236.9,11.03,100,10.40346,0.5,860.3297,0,-2.52,3.143,293,13.1,12.8,1.860665,0.178,51.6,54.52,33.69,34.4
"2017-05-25 06:10:00",289538,0.5,222.5,10.97,100,12.26641,1,860.4349,0,-3.588,3.153,286,13.03,12.81,1.868244,0.154,51.71,54.69,33.72,34.44
"2017-05-25 06:20:00",289539,0.973,179.1,10.91,100,17.5212,0.5,860.496,0,-4.637,3.164,209,13.06,12.83,2.30783,0.132,51.82,55.2,33.75,34.56
"2017-05-25 06:30:00",289540,0.969,182.3,10.86,100,28.72251,1,860.5823,0,-4.943,3.167,200,13.08,12.84,3.528063,0.123,51.94,56.29,33.77,34.82
"2017-05-25 06:40:00",289541,0.844,181.1,10.88,100,24.15159,0.5,860.5676,0,-6.064,3.178,187,13.01,12.84,3.168056,0.131,51.94,57.56,33.77,35.12
"2017-05-25 06:50:00",289542,1.513,186.8,10.96,100,40.45048,0.5,860.574,0,-4.278,3.16,189,12.97,12.84,5.172723,0.128,51.99,58.38,33.79,35.31
"2017-05-25 07:00:00",289543,0.44,197.3,11.01,100,41.83001,0.5,860.7361,0,-4.633,3.163,217,12.97,12.84,5.112091,0.122,51.99,58.85,33.79,35.41
"2017-05-25 07:10:00",289544,0.046,16.75,11.11,100,34.44893,0.5,860.951,0,-4.964,3.166,196,12.98,12.81,4.20639,0.122,51.99,59.14,33.79,35.48
"2017-05-25 07:20:00",289545,0.958,167.1,10.96,100,62.22425,0.5,861.0837,0,-4.714,3.165,196,13.01,12.8,7.586661,0.122,51.99,59.32,33.79,35.52
"2017-05-25 07:30:00",289546,1.487,172.9,10.71,100,80.95598,0,861.0858,0,-4.232,3.161,212,12.91,12.75,10.52356,0.129,51.99,59.5,33.79,35.56
"2017-05-25 07:40:00",289547,1.004,170.2,10.72,99.9,96.81467,0,861.0752,0,-3.62,3.155,272,12.89,12.77,12.63812,0.131,51.99,59.61,33.79,35.59
"2017-05-25 07:50:00",289548,0.726,158,10.63,97,111.6004,0.5,860.9742,0,-5.1,3.17,205,12.89,12.79,14.83984,0.133,51.94,59.67,33.77,35.6
"2017-05-25 08:00:00",289549,1.115,177,10.71,90.7,111.2781,0,861.09,0,-4.053,3.159,242,12.89,12.75,15.22259,0.137,51.88,59.79,33.76,35.63
"2017-05-25 08:10:00",289550,0.933,177.3,10.67,89.3,88.07372,0,861.269,0,-3.494,3.154,248,12.89,12.72,12.51685,0.142,51.94,59.85,33.77,35.64
"2017-05-25 08:20:00",289551,0.761,172.5,10.69,87.1,96.50025,0.5,861.3428,0,-3.518,3.154,211,12.9,12.71,13.77498,0.143,51.88,59.91,33.76,35.66
"2017-05-25 08:30:00",289552,0.597,80.2,10.79,83.8,97.57715,0,861.3638,0,-3.209,3.15,237,12.92,12.71,14.20699,0.145,51.88,59.97,33.76,35.67
"2017-05-25 08:40:00",289553,0.35,126.8,10.87,82.7,122.5698,0.5,861.3407,0,-3.694,3.155,225,12.93,12.72,17.32199,0.141,51.88,59.97,33.76,35.67
"2017-05-25 08:50:00",289554,0.541,54.05,10.91,83.2,162.5487,0,861.1848,0,-2.972,3.146,259,12.92,12.72,22.88883,0.141,51.88,59.97,33.76,35.67
"2017-05-25 09:00:00",289555,0.64,182,10.96,86.3,207.0041,0,860.8036,0,-3.54,3.153,235,12.9,12.72,28.80051,0.139,51.88,60.03,33.76,35.69
"2017-05-25 09:10:00",289556,0.6,152.8,11.04,89.6,234.2449,0,860.5887,0,-3.201,3.148,222,12.89,12.72,32.13531,0.137,51.88,60.03,33.76,35.69
"2017-05-25 09:20:00",289557,0.686,160,11.32,84.8,264.1779,0,860.5823,0,-2.968,3.145,230,12.89,12.71,36.42886,0.138,51.88,60.03,33.76,35.69
"2017-05-25 09:30:00",289558,0.334,141.8,11.53,84.3,145.3969,0,860.5297,0,-3.679,3.151,202,12.89,12.71,20.23236,0.139,51.88,60.03,33.76,35.69
"2017-05-25 09:40:00",289559,0.384,150,11.65,78.51,173.9386,0,860.376,0,-3.903,3.152,207,12.89,12.67,24.99581,0.144,51.82,60.09,33.75,35.7
"2017-05-25 09:50:00",289560,0.446,154.8,11.92,79.81,284.58,0,860.3297,0,-3.617,3.148,191,12.89,12.65,39.65376,0.14,51.82,60.03,33.75,35.69
"2017-05-25 10:00:00",289561,0.946,164.8,11.75,80.3,189.927,0,860.3444,0,-3.67,3.149,198,12.87,12.61,26.56089,0.142,51.77,60.03,33.73,35.69
"2017-05-25 10:10:00",289562,0.663,150.5,11.71,77.05,100.6271,0,860.3802,0,-3.805,3.152,194,12.85,12.6,14.98006,0.149,51.77,60.09,33.73,35.7
"2017-05-25 10:20:00",289563,0.713,142.2,11.47,78.63,91.37516,0,860.3339,0,-3.809,3.153,196,12.86,12.63,13.5855,0.149,51.71,60.03,33.72,35.69
"2017-05-25 10:30:00",289564,0.704,159.8,11.2,78.17,107.2221,0.5,860.5634,0,-4.327,3.16,206,12.93,12.63,15.34764,0.143,51.71,60.03,33.72,35.69
"2017-05-25 10:40:00",289565,0.724,138.4,10.98,78.17,127.0071,0.5,860.3971,0,-3.841,3.155,202,12.99,12.63,17.70852,0.139,51.71,60.03,33.72,35.69
"2017-05-25 10:50:00",289566,0.43,53.95,11.14,77.28,175.9706,0,860.3297,0,-4.239,3.156,201,12.98,12.63,24.60549,0.14,51.77,60.03,33.73,35.69
"2017-05-25 11:00:00",289567,0.66,92.5,11.33,88.4,189.2589,0.5,860.3107,0,-3.845,3.156,214,12.97,12.63,25.29897,0.133,51.77,60.03,33.73,35.69
"2017-05-25 11:10:00",289568,0.261,106.1,10.98,99.7,180.6594,0,860.3297,0,-3.511,3.152,210,12.97,12.64,22.37345,0.123,51.82,60.09,33.75,35.7
"2017-05-25 11:20:00",289569,0.47,130.1,10.98,100,161.3185,0,860.3254,0,-3.486,3.152,197,12.94,12.63,19.8193,0.123,51.88,60.09,33.76,35.7
"2017-05-25 11:30:00",289570,0.844,126.6,11.18,96.5,192.1555,0.5,860.0496,0,-3.474,3.149,188,13,12.64,24.84802,0.129,51.82,60.15,33.75,35.71
"2017-05-25 11:40:00",289571,0.453,87.4,11.67,94.7,161.684,0,860.0306,0,-3.67,3.149,233,13.06,12.64,21.24038,0.131,51.88,60.15,33.76,35.71
"2017-05-25 11:50:00",289572,0.539,132.9,11.8,99.2,258.1096,0,859.9295,0,-3.797,3.15,203,13.04,12.63,33.28354,0.129,51.88,60.21,33.76,35.73
"2017-05-25 12:00:00",289573,0.615,149.3,11.94,92.4,205.5302,0,859.8958,0,-3.972,3.151,214,13.02,12.62,27.03458,0.132,51.88,60.21,33.76,35.73
"2017-05-25 12:10:00",289574,1.018,169.7,12.03,87,213.6777,0,859.8242,0,-3.968,3.15,203,13.02,12.6,29.0241,0.136,51.94,60.21,33.77,35.73
"2017-05-25 12:20:00",289575,0.784,148.5,12.14,84.5,135.1507,0,859.7441,0,-3.744,3.149,221,13.02,12.57,18.87949,0.14,51.88,60.21,33.76,35.73
"2017-05-25 12:30:00",289576,0.829,159.4,11.99,83.2,118.8164,0.5,859.7778,0,-4.078,3.153,225,13.03,12.54,16.74598,0.141,51.88,60.27,33.76,35.74
"2017-05-25 12:40:00",289577,1.027,154.9,11.67,89.4,170.4721,0,859.6304,0,-3.985,3.154,220,13.12,12.52,23.45726,0.138,51.88,60.27,33.76,35.74
"2017-05-25 12:50:00",289578,0.861,153.1,11.91,86.3,398.515,0,859.3018,0,-4.606,3.156,196,13.14,12.53,55.43719,0.139,51.88,60.27,33.76,35.74
"2017-05-25 13:00:00",289579,1.182,144.4,12.79,81.7,557.0587,0,858.7162,0,-3.609,3.141,222,13.12,12.55,76.87842,0.138,51.88,60.27,33.76,35.74
"2017-05-25 13:10:00",289580,1.364,143.4,13.71,71.24,525.5654,0,858.2129,0,-4.814,3.148,202,13.1,12.54,75.4346,0.144,51.88,60.27,33.76,35.74
"2017-05-25 13:20:00",289581,1.266,150.2,14.35,64.07,316.4625,0,857.7327,0,-4.696,3.144,208,13.17,12.55,48.66908,0.154,51.82,60.27,33.75,35.74
"2017-05-25 13:30:00",289582,0.841,158.4,14.73,59.96,266.7955,0,857.7379,0,-4.861,3.143,191,13.19,12.56,42.13591,0.158,51.88,60.27,33.76,35.74
"2017-05-25 13:40:00",289583,0.494,279.8,14.74,71.6,508.8803,0,857.8421,0,-4.848,3.147,195,13.2,12.57,75.16313,0.149,51.82,60.27,33.75,35.74
"2017-05-25 13:50:00",289584,0.475,291.1,13.95,96.4,436.6201,0,857.9858,0,-4.803,3.15,191,13.23,12.55,62.15755,0.14,51.82,60.27,33.75,35.74
"2017-05-25 14:00:00",289585,0.373,302.1,13.52,100,245.6466,0,858.132,0,-4.62,3.151,194,13.21,12.53,34.25463,0.139,51.82,60.27,33.75,35.74
"2017-05-25 14:10:00",289586,0.23,286.3,13.11,100,325.5007,0,858.2141,0,-3.455,3.139,197,13.18,12.48,46.07162,0.141,51.77,60.27,33.73,35.74
"2017-05-25 14:20:00",289587,0.385,30.39,13.33,98.9,325.0596,0,858.2805,0,-2.662,3.132,201,13.19,12.45,47.51314,0.146,51.77,60.27,33.73,35.74
"2017-05-25 14:30:00",289588,0.669,24.89,13.4,94.7,440.7188,0,858.2233,0,-3.008,3.133,196,13.27,12.43,64.77605,0.147,51.77,60.21,33.73,35.73
"2017-05-25 14:40:00",289589,0.436,120.5,13.83,86.8,612.1931,0,858.2191,0,-3.068,3.131,208,13.31,12.45,83.7859,0.136,51.94,60.21,33.77,35.73
"2017-05-25 14:50:00",289590,0.143,284.9,14.49,84.1,519.8224,0,858.2191,0,-2.586,3.123,214,13.31,12.45,65.25304,0.126,51.71,60.21,33.72,35.73
"2017-05-25 15:00:00",289591,0.333,344.9,14.44,86.4,311.8175,0,858.2233,0,-2.447,3.124,204,13.31,12.45,41.28066,0.134,51.71,60.21,33.72,35.73
"2017-05-25 15:10:00",289592,0.314,18.14,14.32,90.9,310.1472,0,858.2191,0,-2.543,3.124,201,13.36,12.43,44.51577,0.144,51.71,60.21,33.72,35.73
"2017-05-25 15:20:00",289593,0.198,9.07,14.56,88.9,308.0137,0,858.2211,0,-2.573,3.121,196,13.4,12.41,44.8226,0.146,51.66,60.15,33.7,35.71
"2017-05-25 15:30:00",289594,0.427,353.7,14.84,89.9,301.7509,0,858.2191,0,-2.175,3.119,206,13.42,12.41,46.93644,0.155,51.66,60.15,33.7,35.71
"2017-05-25 15:40:00",289595,0.438,10.52,14.6,88.2,235.0021,0,858.1875,0,-2.663,3.124,201,13.49,12.41,36.08689,0.153,51.66,60.15,33.7,35.71
"2017-05-25 15:50:00",289596,0.329,90.3,14.57,89.9,223.9735,0,858.019,0,-2.688,3.124,204,13.52,12.41,35.05648,0.157,51.6,60.15,33.69,35.71
"2017-05-25 16:00:00",289597,0.295,28.3,14.84,89.4,230.0555,0,857.9896,0,-2.435,3.122,204,13.56,12.41,36.25357,0.158,51.6,60.15,33.69,35.71
"2017-05-25 16:10:00",289598,0.164,357.7,14.59,90.3,153.8229,0,858.1307,0,-2.641,3.124,206,13.64,12.41,23.24861,0.151,51.6,60.15,33.69,35.71
"2017-05-25 16:20:00",289599,0.028,316.9,14.44,98.7,160.739,0,858.2191,0,-2.52,3.124,212,13.63,12.43,24.62393,0.153,51.55,60.15,33.68,35.71
"2017-05-25 16:30:00",289600,0.112,311.8,14.36,100,142.5941,0,858.2211,0,-3.164,3.131,199,13.69,12.43,21.33557,0.15,51.55,60.09,33.68,35.7
"2017-05-25 16:40:00",289601,0.318,62.87,14.16,95.9,143.1167,0,858.2612,0,-3.069,3.131,202,13.64,12.44,21.99473,0.154,51.55,60.09,33.68,35.7
"2017-05-25 16:50:00",289602,0.198,34.6,14.15,91.8,108.6732,0,858.4528,0,-3.686,3.137,198,13.69,12.44,16.89977,0.155,51.55,60.09,33.68,35.7
"2017-05-25 17:00:00",289603,0.465,23.44,13.64,84.3,105.4267,0,858.4717,0,-2.683,3.13,217,13.77,12.42,17.68822,0.166,51.55,60.09,33.68,35.7
"2017-05-25 17:10:00",289604,0.231,48.44,13.79,83,173.1473,0,858.4697,0,-3.348,3.135,202,13.82,12.44,28.21345,0.163,51.55,60.09,33.68,35.7
"2017-05-25 17:20:00",289605,0.174,134.2,13.81,84.9,148.0038,0,858.4412,0,-3.616,3.138,199,13.86,12.47,23.53202,0.159,51.55,60.09,33.68,35.7
"2017-05-25 17:30:00",289606,0.243,103.9,13.93,87.2,168.5285,0,858.3245,0,-3.737,3.137,198,13.85,12.5,27.49273,0.163,51.49,60.09,33.66,35.7
"2017-05-25 17:40:00",289607,0.101,290.2,13.93,85.4,70.36583,0,858.3788,0,-4.445,3.147,191,13.92,12.5,10.18865,0.143,51.49,60.03,33.66,35.69
"2017-05-25 17:50:00",289608,0.087,69.69,13.44,90.8,51.43991,0,858.5287,0,-4.432,3.149,195,13.93,12.49,7.1574,0.139,51.44,60.03,33.65,35.69
"2017-05-25 18:00:00",289609,0.13,65.2,13.12,93,41.15754,0,858.7688,0,-4.5,3.151,190,13.95,12.47,5.960327,0.145,51.49,60.03,33.66,35.69
"2017-05-25 18:10:00",289610,0.2,38.64,12.79,96,31.14211,0,858.8031,0,-4.08,3.149,196,13.96,12.5,5.017119,0.162,51.44,60.03,33.65,35.69
"2017-05-25 18:20:00",289611,0.179,52.88,12.54,96,27.57016,0,858.9324,0,-4.088,3.15,197,13.97,12.51,4.983107,0.181,51.49,60.03,33.66,35.69
"2017-05-25 18:30:00",289612,0.245,47.74,12.4,98.2,21.97788,0,858.9567,0,-4.143,3.151,196,13.97,12.5,4.392025,0.2,51.44,59.97,33.65,35.67
"2017-05-25 18:40:00",289613,0.061,105.8,12.33,98.9,8.917773,0,859.035,0,-4.197,3.152,196,13.97,12.5,2.099397,0.243,51.38,60.03,33.64,35.69
"2017-05-25 18:50:00",289614,0.069,146.7,12.05,100,3.325016,0,859.0677,0,-4.332,3.155,197,13.98,12.51,1.117913,0.38,51.44,60.03,33.65,35.69
"2017-05-25 19:00:00",289615,0.2,154.3,11.82,100,0.1886536,0,859.0659,0,-4.72,3.16,187,14,12.51,0.9094898,0.53,51.38,59.97,33.64,35.67
"2017-05-25 19:10:00",289616,0.325,143,11.6,100,0.04323312,0,859.0659,0,-4.267,3.157,197,14.02,12.51,0.8640153,0.225,51.38,59.97,33.64,35.67
"2017-05-25 19:20:00",289617,0.151,140.1,11.6,92.4,0,0,859.2597,0,-4.52,3.159,198,14.02,12.52,0.9094898,0,51.38,59.97,33.64,35.67
"2017-05-25 19:30:00",289618,0.393,150.1,11.63,87.2,0,0,859.3229,0,-5.28,3.165,195,14.01,12.52,1.144441,0,51.44,59.97,33.65,35.67
"2017-05-25 19:40:00",289619,0.368,160.1,11.71,85,0,0,859.5693,0,-4.598,3.16,208,13.96,12.54,1.364235,0,51.38,59.91,33.64,35.66
"2017-05-25 19:50:00",289620,0.317,136.8,11.19,92.9,0,0,859.5735,0,-4.302,3.16,207,13.92,12.54,0.5343253,0,51.38,59.97,33.64,35.67
"2017-05-25 20:00:00",289621,0.492,134.5,10.85,95.9,0,0,859.6535,0,-4.126,3.159,209,13.93,12.58,0.8943317,0,51.38,59.97,33.64,35.67
"2017-05-25 20:10:00",289622,0.531,147.2,10.9,94.5,0,0,859.5714,0,-4.049,3.158,208,13.93,12.62,1.311181,0,51.33,59.91,33.62,35.66
"2017-05-25 20:20:00",289623,0.544,147.1,11.2,90,0,0,859.5798,0,-4.165,3.156,212,13.91,12.66,1.690135,0,51.33,59.91,33.62,35.66
"2017-05-25 20:30:00",289624,0.4,152.4,11.57,85.7,0,0,859.7315,0,-4.238,3.156,207,13.83,12.64,1.587818,0,51.33,59.91,33.62,35.66
"2017-05-25 20:40:00",289625,0.383,151.8,11.36,90.2,0,0,859.6282,0,-4.552,3.161,202,13.84,12.63,1.057282,0,51.38,59.91,33.64,35.66
"2017-05-25 20:50:00",289626,0.477,147.4,11.15,92.7,0,0,859.5945,0,-4.225,3.159,209,13.84,12.63,1.011807,0,51.33,59.85,33.62,35.64
"2017-05-25 21:00:00",289627,0.547,154.4,11,97.1,0,0,859.5546,0,-3.311,3.151,227,13.85,12.63,0.8526467,0,51.33,59.85,33.62,35.64
"2017-05-25 21:10:00",289628,0.342,143.8,10.96,97.8,0,0,859.5714,0,-3.588,3.153,221,13.8,12.63,0.9094898,0,51.33,59.85,33.62,35.64
"2017-05-25 21:20:00",289629,0.451,122.7,11.21,89.8,0,0,859.7189,0,-3.936,3.154,219,13.8,12.63,1.477921,0,51.33,59.85,33.62,35.64
"2017-05-25 21:30:00",289630,0.228,118.9,11.55,84.8,0,0,859.6641,0,-4.34,3.157,214,13.76,12.63,1.530975,0,51.33,59.85,33.62,35.64
"2017-05-25 21:40:00",289631,0.244,91.4,11.64,83.6,0,0,859.7947,0,-4.695,3.16,202,13.76,12.63,1.254338,0,51.27,59.85,33.61,35.64
"2017-05-25 21:50:00",289632,0.072,329.7,11.52,86.3,0,0,859.8242,0,-4.242,3.157,204,13.7,12.63,0.7882245,0,51.27,59.79,33.61,35.63
"2017-05-25 22:00:00",289633,0.207,125.7,11.01,96.7,0,0,859.6957,0,-4.207,3.161,213,13.65,12.63,0.2880051,0,51.33,59.79,33.62,35.63
"2017-05-25 22:10:00",289634,0.141,134.7,10.66,100,0,0,859.5693,0,-4.208,3.161,213,13.67,12.63,0.4547449,0,51.27,59.79,33.61,35.63
"2017-05-25 22:20:00",289635,0.143,169,10.71,98.3,0,0,859.4408,0,-4.074,3.158,206,13.68,12.63,0.7086442,0,51.33,59.79,33.62,35.63
"2017-05-25 22:30:00",289636,0.276,144.2,11.4,82.8,0,0,859.3398,0,-4.082,3.154,225,13.6,12.63,1.508237,0,51.27,59.79,33.61,35.63
"2017-05-25 22:40:00",289637,0.186,122.4,11.58,79.73,0,0,859.5061,0,-3.96,3.154,204,13.58,12.63,1.493079,0,51.27,59.73,33.61,35.62
"2017-05-25 22:50:00",289638,0.293,114.8,11.43,81.5,0,0,859.3608,0,-3.948,3.157,211,13.58,12.63,0.9852807,0,51.27,59.73,33.61,35.62
"2017-05-25 23:00:00",289639,0.472,129.6,10.7,94.4,0,0,859.3207,0,-3.93,3.159,216,13.61,12.63,0.4282182,0,51.27,59.73,33.61,35.62
"2017-05-25 23:10:00",289640,0.565,120.8,10.6,100,0,0,859.3166,0,-3.421,3.154,234,13.5,12.63,0.4547449,0,51.27,59.73,33.61,35.62
"2017-05-25 23:20:00",289641,0.427,129.5,10.5,100,0,0,859.3187,0,-4.109,3.161,216,13.5,12.63,0.4016913,0,51.21,59.73,33.6,35.62
"2017-05-25 23:30:00",289642,0.336,124,10.53,100,0,0,859.3145,0,-3.905,3.159,220,13.5,12.63,0.4547449,0,51.27,59.73,33.61,35.62
"2017-05-25 23:40:00",289643,0.334,128.8,10.47,100,0,0,859.1059,0,-3.648,3.156,225,13.52,12.63,0.3600064,0,51.21,59.67,33.6,35.6
"2017-05-25 23:50:00",289644,0.221,108.2,10.65,100,0,0,859
"2017-05-25 23:50:00",289644,0.221,108.2,10.65,100,0,0,859.0638,0,-3.747,3.156,217,13.47,12.63,0.4547449,0,51.27,59.67,33.61,35.6
